Location: Columbia
(38.9520°N, 92.3340°W)
Time: 01:25:13
(UTC-06:00)

Daily predictions for brighter satellites

Satellite Brightness Start Highest point End
(mag) Time Altitude Azimuth Time Altitude Azimuth Time Altitude Azimuth
NOSS 3-1 (C) 4.4 04:08:24 48° N 04:10:32 62° NE 04:18:55 10° SE
SL-16 R/B 4.5 04:20:04 13° N 04:20:04 13° N 04:20:36 10° N
Cosmos 1603 4.0 04:21:24 61° ENE 04:21:24 61° ENE 04:26:17 10° NNE
DELTA 2 R/B (1) 3.9 04:32:55 56° SSE 04:32:55 56° SSE 04:37:41 10° ESE
USA 229 DEB 3.9 04:34:33 55° SW 04:34:33 55° SW 04:41:02 10° SSE
USA 229 3.9 04:34:35 56° SW 04:34:35 56° SW 04:41:08 10° SSE
Cosmos 2369 Rocket 3.3 04:33:34 23° N 04:36:31 40° ENE 04:41:46 10° SE
Cosmos 2233 Rocket 3.9 04:33:29 29° N 04:36:48 83° E 04:42:56 10° S
NOSS 3-1 (A) 4.3 04:33:22 32° NNW 04:37:21 67° NE 04:45:46 10° SE
CZ-4B R/B 3.1 04:34:01 10° NNE 04:39:43 85° WNW 04:40:47 61° SSW
Lacrosse 5 rocket 3.9 04:42:58 14° NNE 04:42:58 14° NNE 04:43:57 10° NNE
Lacrosse 4 Rocket 4.1 04:37:15 10° SSE 04:40:24 20° ESE 04:43:32 10° ENE
Cosmos 1703 Rocket 3.9 04:43:47 60° ENE 04:43:53 60° E 04:48:08 10° SSE
Cosmos 968 Rocket 3.5 04:44:14 61° N 04:45:07 79° ENE 04:50:22 10° SSE
Cosmos 1869 Rocket 4.2 04:42:49 10° S 04:47:05 55° E 04:51:24 10° NNE
Atlas Centaur 2 4.1 04:46:20 23° SSW 04:47:23 24° SSW 04:53:33 10° SSE
Meteor 1-28 Rocket 4.0 04:48:42 10° SSE 04:51:34 48° SE 04:51:34 48° SE
Cosmos 405 Rocket 3.9 04:53:27 28° NNE 04:54:48 40° ENE 04:58:23 10° SSE
Cosmos 1943 Rocket 3.4 04:54:24 12° N 04:59:23 40° ENE 05:04:40 10° SE
Okean-O 3.6 04:55:40 10° NNE 04:59:58 47° E 05:04:14 10° S
Cosmos 1782 2.6 05:04:11 85° S 05:04:11 85° S 05:08:01 10° S
Landsat 4 3.6 05:01:57 10° SSE 05:05:39 80° ENE 05:05:51 76° NNE
COSMO-SKYMED 1 3.3 05:03:40 10° SSE 05:07:51 51° ENE 05:12:05 10° N
ATLAS 5 CENTAUR R/B 1.6 05:13:03 49° WSW 05:14:05 64° NW 05:19:01 10° NNE
EO 1 Del DPAF 3.7 05:12:15 10° SSE 05:16:02 62° ENE 05:19:04 15° N
Feng Yun 1-1 Rocket 4.4 05:11:03 10° NNE 05:17:02 82° ESE 05:22:54 10° SSW
Cosmos 1943 3.1 05:14:44 10° SSW 05:20:24 71° WNW 05:26:06 10° NNE
Okean 1-7 2.9 05:23:18 22° NNW 05:25:59 64° W 05:30:15 10° S
Hubble Space Telescope 3.2 05:33:11 10° SSW 05:34:20 11° SSW 05:35:30 10° S
IDEFIX/ARIANE 42P 2.7 05:29:36 10° NNE 05:34:49 79° ESE 05:40:00 10° S
CZ-2C R/B 3.0 05:31:27 10° NNE 05:36:33 61° E 05:41:28 10° S
Meteor 2-6 Rocket 4.4 05:31:25 10° NNW 05:37:12 58° W 05:43:01 10° S
Genesis I 3.3 05:35:47 28° WSW 05:37:32 50° NW 05:41:23 10° NNE
SKYMED 3 4.5 05:33:30 10° S 05:37:50 71° W 05:42:10 10° NNW
Cosmos 1072 Rocket 4.5 05:32:02 10° NNW 05:38:26 70° W 05:44:44 10° S
Cosmos 1862 3.2 05:35:38 10° SSW 05:39:32 61° W 05:43:28 10° N
Cosmos 2263 4.2 05:39:13 10° NNW 05:44:59 77° WSW 05:50:44 10° SSE
Cosmos 2034 Rocket 4.0 05:39:14 10° N 05:45:29 90° E 05:51:39 10° S
DEBRIS 3.1 05:49:16 25° WSW 05:49:39 27° SW 05:51:31 10° SSE
Cosmos 1733 Rocket 3.1 05:46:41 10° S 05:51:00 80° E 05:55:22 10° N
Cosmos 1606 4.2 05:53:29 19° WSW 05:53:29 19° WSW 05:55:40 10° SW
DMSP B5D1-3 4.5 05:49:01 10° S 05:54:08 81° WSW 05:59:19 10° NNW
Cosmos 1441 Rocket 3.6 05:51:55 16° NNW 05:54:31 37° W 05:57:58 10° SSW
SKYMED 2 3.9 05:51:46 10° S 05:55:53 43° W 06:00:03 10° NNW
Abrixas rocket 2.8 05:56:49 19° NW 05:58:48 46° NNE 06:01:54 10° ESE
Cosmos 1812 4.3 05:58:36 10° N 06:02:13 36° ENE 06:05:48 10° SSE
Cosmos 2208 Rocket 4.2 06:00:40 10° S 06:05:51 75° ESE 06:11:02 10° NNE
Cosmos 1484 Rocket 3.9 06:04:10 10° NNE 06:08:04 49° E 06:11:56 10° S
Cosmos 1464 Rocket 4.4 06:05:55 10° NNW 06:11:43 40° W 06:17:33 10° SSW
Shenzhou-11 Module 2.7 06:09:10 10° SW 06:12:07 52° SSE 06:15:04 10° ENE
Cosmos 2346 Rocket 4.5 06:07:33 10° S 06:13:35 86° E 06:19:40 10° N
SMAP 4.1 06:09:04 10° NNE 06:13:36 51° E 06:18:07 10° S
Meteor 1-27 Rocket 4.1 06:08:51 10° NNW 06:14:18 43° W 06:19:37 10° SSW
ATLAS 2AS CENTAUR R/B 3.6 06:06:59 10° NNW 06:14:47 54° NE 06:21:58 10° SE
Cosmos 1570 Rocket 4.0 06:11:04 10° SSW 06:16:23 78° WNW 06:21:46 10° NNE
Tiangong 2 3.5 06:15:32 10° SSW 06:18:11 24° SSE 06:20:51 10° E
Lacrosse 4 Rocket 2.0 06:14:51 10° SW 06:18:51 36° WNW 06:22:49 10° N
Cosmos 2369 Rocket 3.2 06:15:44 10° NW 06:20:17 26° WSW 06:24:49 10° SSW
Sich 1 Rocket 4.3 06:17:07 10° S 06:21:25 57° E 06:25:44 10° NNE
Cosmos 371 Rocket 3.2 06:17:37 10° SSW 06:22:28 80° WNW 06:27:18 10° NNE
Cosmos 1818 3.7 06:18:06 10° NNW 06:23:36 83° ENE 06:29:01 10° SSE
CZ-4 R/B 2.5 06:20:46 10° NNE 06:24:37 49° E 06:28:33 10° S
NOSS 7 (E) 4.5 06:21:51 10° SW 06:25:23 53° NW 06:28:35 10° NNE
Cosmos 468 Rocket 4.4 06:23:24 10° S 06:28:39 73° ESE 06:33:55 10° NNE
Tsikada Rocket 4.2 06:22:41 10° SSW 06:28:46 51° W 06:34:49 10° N
Okean 3 3.4 06:25:03 10° N 06:29:17 85° W 06:33:32 10° S
Ariane Rocket 3.2 06:27:30 10° NNE 06:32:35 82° ESE 06:37:37 10° SSW
PSLV R/B 3.1 06:29:33 10° WNW 06:32:42 77° SSW 06:35:51 10° ESE
MSX 4.0 06:27:10 10° N 06:32:45 52° WNW 06:38:17 10° SW
Cosmos 909 Rocket 4.4 06:27:36 10° NNW 06:35:09 82° ENE 06:41:31 10° SSE
NOSS 3-3 (A) 4.0 06:31:52 10° SSW 06:37:56 86° WNW 06:44:33 10° NNE
NOSS 3-3 (C) 4.0 06:31:59 10° SSW 06:38:02 86° WNW 06:44:39 10° NNE
